Location: Zagreb
(45.8000°N, 16.0000°E)
Time: 15:36:02
(UTC+02:00)

Vanguard 1 - Pass Details

Date: 11 August 2022
Orbit: 649 x 3832 km, 34.2° (Epoch: 25 September)

Event Time Altitude Azimuth Distance (km) Brightness Sun altitude
Rises 08:22:14 0° 265° (W) 6,879 13.8 24.9°
Reaches altitude 10° 08:26:23 10° 262° (W) 6,171 13.7 25.6°
Maximum altitude 08:47:06 59° 191° (S) 4,212 13.6 29.2°
Drops below altitude 10° 09:08:20 10° 119° (ESE) 6,293 15.5 32.9°
Sets 09:12:39 0° 116° (ESE) 7,014 15.4 33.6°
